Lexington Weather

Lexington, Massachusetts, USA

67°F
9/23/2021 4:00am 
  • Lexington Conditions: Mostly cloudy
  • Temperature: 66.6°F / 19.2°CWarmer 0.4°F than last hour.
  • Dew Point: 65.3°FIncreased 0.4°Fsince last hour.
  • Relative Humidity: 96
  • Wind: Calm, 10-min avg: Calm, gust: None
  • Barometer: 30.04 in Steady
  • Visibility: 10 miles
  • Rain Today: 0.00 in
  •   

Regional Weather Roundup
for Boston / Norton, MA

        
000
ASUS41 KBOX 211504
RWRBOX

REGIONAL WEATHER ROUNDUP
NATIONAL WEATHER SERVICE BOSTON/NORTON MA
1100 AM EDT TUE SEP 21 2021

NOTE:  "FAIR" INDICATES FEW OR NO CLOUDS BELOW 12,000 FEET WITH NO 
SIGNIFICANT WEATHER AND/OR OBSTRUCTIONS TO VISIBILITY.

MAZALL-211600-
EASTERN MASSACHUSETTS
  
CITY           SKY/WX    TMP DP  RH WIND       PRES   REMARKS
BOSTON         MOSUNNY   69  60  73 E8        30.42F                  
BEVERLY        PTSUNNY   68  61  78 SE8       30.41F                  
LAWRENCE       PTSUNNY   67  58  72 VRB6      30.44S                  
BEDFORD        CLOUDY    67  59  75 SE6       30.41S                  
BLUE HILL      NOT AVBL                                               
NORWOOD        CLOUDY    70  60  70 S5        30.41F                  
MARSHFIELD     MOSUNNY   70  63  78 E9        30.41F                  
PLYMOUTH       MOSUNNY   71  60  68 VRB6      30.41F                  
TAUNTON        MOSUNNY   71  61  70 SE8       30.41F                  
NEW BEDFORD    SUNNY     72  61  68 SE8       30.40F                  
$$

MAZALL-211600-
CAPE COD AND THE ISLANDS
  
CITY           SKY/WX    TMP DP  RH WIND       PRES   REMARKS
FALMOUTH       MOSUNNY   72  63  73 E13       30.41F                  
HYANNIS        SUNNY     71  63  75 E8        30.40F                  
CHATHAM        SUNNY     70  62  76 SE10G18   30.43S                  
PROVINCETOWN   SUNNY     72  63  73 SE7       30.43S                  
NANTUCKET      MOSUNNY   73  63  70 E9        30.40F                  
MARTHAS VNYRD  SUNNY     73  60  63 SE9       30.40F                  
$$
 
MAZALL-211600-
CENTRAL AND WESTERN MASSACHUSETTS
  
CITY           SKY/WX    TMP DP  RH WIND       PRES   REMARKS
WORCESTER      MOSUNNY   63  55  75 SE8       30.42F                  
FITCHBURG      MOSUNNY   65  52  62 SE10      30.43F                  
ORANGE         SUNNY     67  46  47 S8        30.42S                  
SPRINGFIELD    NOT AVBL                                               
WESTFIELD      SUNNY     66  55  67 CALM      30.40F                  
NORTH ADAMS    SUNNY     67  52  58 E14       30.38F                  
PITTSFIELD     MOSUNNY   65  53  65 SE7       30.38S                  
$$
 
RIZALL-211600-
RHODE ISLAND
  
CITY           SKY/WX    TMP DP  RH WIND       PRES   REMARKS
PROVIDENCE     MOSUNNY   69  61  75 E6        30.41F                  
NEWPORT        CLOUDY    69  60  73 E7        30.40F                  
SMITHFIELD     CLOUDY    66  60  81 VRB3      30.42S                  
WESTERLY       CLOUDY    68  63  84 E9        30.39F                  
$$
 
CTZALL-211600-
CONNECTICUT
  
CITY           SKY/WX    TMP DP  RH WIND       PRES   REMARKS
BRADLEY INTL   MOSUNNY   66  52  60 CALM      30.40F                  
HARTFORD       SUNNY     68  55  63 CALM      30.39F                  
BRIDGEPORT     PTSUNNY   69  59  70 E9        30.38S                  
DANBURY        MOSUNNY   69  55  60 SE5       30.40S                  
GROTON         PTSUNNY   70  63  78 E12       30.39S                  
NEW HAVEN      PTSUNNY   73  61  65 E8        30.39S                  
CHESTER        CLOUDY    68  61  77 E5        30.40S                  
MERIDEN        PTSUNNY   69  56  62 CALM      30.39F                  
WILLIMANTIC    CLOUDY    65  58  78 CALM      30.41S                  
OXFORD         MOSUNNY   66  54  65 VRB5      30.41S                  
$$

MEZ002-015-021-024-NHZ003-005-008-011-012-014-VTZ005-008-211600-
NORTHERN NEW ENGLAND
  
CITY           SKY/WX    TMP DP  RH WIND       PRES   REMARKS
PORTLAND ME    PTSUNNY   65  57  75 S8        30.44S                  
BANGOR ME      PTSUNNY   65  56  72 S7        30.45S                  
CONCORD NH     SUNNY     65  53  65 S8        30.42F                  
MANCHESTER NH  PTSUNNY   68  52  56 S9        30.40F                  
NASHUA NH      MOSUNNY   66  58  75 SE8       30.43F                  
PORTSMOUTH NH  PTSUNNY   69  55  62 CALM      30.43F                  
JAFFREY NH     SUNNY     64  50  60 S6        30.42S                  
KEENE NH       SUNNY     67  45  45 SW10      30.41S                  
BURLINGTON VT  MOSUNNY   70  55  59 S17G25    30.31F                  
MT. WASHINGTON NOT AVBL                                               
$$

NYZ052-076-211600-
EASTERN NEW YORK
  
CITY           SKY/WX    TMP DP  RH WIND       PRES   REMARKS
ALBANY         PTSUNNY   64  56  75 SE12      30.35F                  
NEW YORK CITY  MOSUNNY   72  56  57 NE10      30.36R                  
$$
 
ANZALL-211600-
MARINE OBSERVATIONS
  
STATION/POSITION TIME  TEMP    WIND        PRES    VSBY  WAVE
                       AIR SEA DIR/SP/G                  HT/PER
                 (UTC) (F)     (DEG/KT/KT) (MB)    (MI)  (FT/S)
BOSTON BUOY      1440      65  120/  6/  8 1030.4F
BUZZARDS BAY     1400           90/  6/  7 1030.8R
NANTUCKET SOUND  1440   69 71  120/ 12/ 14 1029.7F
MASS BAY-STELLWA 1404   65     150/  6/  8 1030.3R  1 7/8  3/ 8
ISLE OF SHOALS   1400   61      10/  3/  4 1030.1S
S OF BLOCK IS    1426      70                N/A           3/11
$$

......................KEY.........................
  SKY/WX - SKY CONDITION/PRESENT WEATHER
  TMP    - TEMPERATURE IN FAHRENHEIT
  DWPT   - DEWPOINT IN FAHRENHEIT
  RH     - RELATIVE HUMIDITY IN PERCENT
  WIND   - DIRECTION AND SPEED IN MPH
  PRES   - MEAN SEA LEVEL PRESSURE IN INCHES OF HG
  WCI    - WIND CHILL INDEX
  VSB    - VISIBILITY IN MILES
  HX     - HEAT INDEX
  TC     - TEMPERATURE IN CELSIUS
  VRB    - VARIABLE WIND DIRECTION
  N/A    - NOT AVAILABLE
  
      

Other recent Regional Weather Roundups

Thu Sep 23, 3:04am

Thu Sep 23, 2:04am

Thu Sep 23, 1:04am

Thu Sep 23, 12:04am

Wed Sep 22, 11:04pm

Wed Sep 22, 10:04pm

Wed Sep 22, 9:04pm

Wed Sep 22, 8:04pm

Wed Sep 22, 7:04pm

Wed Sep 22, 6:04pm

Wed Sep 22, 5:04pm

Wed Sep 22, 4:04pm

Wed Sep 22, 3:04pm

Wed Sep 22, 2:04pm

Wed Sep 22, 1:04pm

Wed Sep 22, 12:05pm

Wed Sep 22, 11:04am

Wed Sep 22, 10:04am

Wed Sep 22, 9:04am

Wed Sep 22, 8:04am

Wed Sep 22, 7:04am

Wed Sep 22, 6:04am

Wed Sep 22, 5:04am

Wed Sep 22, 4:04am

Wed Sep 22, 3:04am

Wed Sep 22, 2:04am

Wed Sep 22, 1:04am

Wed Sep 22, 12:04am

Tue Sep 21, 11:04pm

Tue Sep 21, 10:04pm

Tue Sep 21, 9:04pm

Tue Sep 21, 8:04pm

Tue Sep 21, 7:04pm

Tue Sep 21, 6:04pm

Tue Sep 21, 5:04pm

Tue Sep 21, 4:04pm

Tue Sep 21, 3:04pm

Tue Sep 21, 2:04pm

Tue Sep 21, 1:04pm

Tue Sep 21, 12:04pm

Tue Sep 21, 10:04am

Tue Sep 21, 9:04am

Tue Sep 21, 8:04am

Tue Sep 21, 7:04am

Tue Sep 21, 6:04am

Tue Sep 21, 5:04am

Tue Sep 21, 4:04am

Tue Sep 21, 3:04am

Tue Sep 21, 2:04am

Tue Sep 21, 1:04am

Tue Sep 21, 12:04am

Mon Sep 20, 11:04pm

Mon Sep 20, 10:04pm

Mon Sep 20, 9:04pm

Mon Sep 20, 8:04pm

Mon Sep 20, 7:04pm

Mon Sep 20, 6:04pm

Mon Sep 20, 5:04pm

Mon Sep 20, 4:04pm

Mon Sep 20, 3:04pm

Mon Sep 20, 2:04pm

Mon Sep 20, 1:04pm

Mon Sep 20, 12:04pm

Mon Sep 20, 11:04am

Mon Sep 20, 10:04am

Mon Sep 20, 9:04am

Mon Sep 20, 7:04am

Mon Sep 20, 6:04am

Mon Sep 20, 5:04am

Mon Sep 20, 4:04am

Mon Sep 20, 3:04am

Mon Sep 20, 2:04am

Mon Sep 20, 1:04am

Mon Sep 20, 12:04am

Sun Sep 19, 11:04pm

Sun Sep 19, 10:04pm

Sun Sep 19, 9:04pm

Sun Sep 19, 8:04pm

Sun Sep 19, 7:04pm

Sun Sep 19, 6:04pm

Sun Sep 19, 5:04pm

Sun Sep 19, 4:04pm

Sun Sep 19, 3:04pm

Sun Sep 19, 2:05pm

Sun Sep 19, 1:04pm

Sun Sep 19, 12:04pm

Sun Sep 19, 11:04am

Sun Sep 19, 10:05am

Sun Sep 19, 9:04am

Sun Sep 19, 8:04am

Sun Sep 19, 7:04am

Sun Sep 19, 6:04am

Sun Sep 19, 5:04am

Sun Sep 19, 4:04am

Sun Sep 19, 3:04am

Sun Sep 19, 2:04am

Sun Sep 19, 1:04am

Sun Sep 19, 12:04am

Sat Sep 18, 11:05pm

Sat Sep 18, 10:04pm

Sat Sep 18, 9:04pm

Sat Sep 18, 8:04pm

Sat Sep 18, 7:04pm

Sat Sep 18, 6:04pm

Sat Sep 18, 5:04pm

Sat Sep 18, 4:04pm

Sat Sep 18, 3:04pm

Sat Sep 18, 2:04pm

Sat Sep 18, 1:04pm

Sat Sep 18, 12:04pm

Sat Sep 18, 11:04am

Sat Sep 18, 10:04am

Sat Sep 18, 9:04am

Sat Sep 18, 8:04am

Sat Sep 18, 7:04am

Sat Sep 18, 6:04am

Sat Sep 18, 5:04am

Sat Sep 18, 4:04am

Sat Sep 18, 3:04am

Sat Sep 18, 2:04am

Sat Sep 18, 1:04am

Sat Sep 18, 12:04am

Fri Sep 17, 11:04pm

Fri Sep 17, 10:04pm

Fri Sep 17, 9:04pm

Fri Sep 17, 8:04pm

Fri Sep 17, 7:04pm

Fri Sep 17, 6:04pm

Fri Sep 17, 5:04pm

Fri Sep 17, 4:04pm

Fri Sep 17, 3:04pm

Fri Sep 17, 2:04pm

Fri Sep 17, 1:04pm

Fri Sep 17, 12:05pm

Fri Sep 17, 11:04am

Fri Sep 17, 10:04am

Fri Sep 17, 9:04am

Fri Sep 17, 8:04am

Fri Sep 17, 7:04am

Fri Sep 17, 6:04am

Fri Sep 17, 5:04am

Fri Sep 17, 4:04am

Fri Sep 17, 3:04am

Fri Sep 17, 2:04am

Fri Sep 17, 1:04am

Fri Sep 17, 12:04am

Thu Sep 16, 11:04pm

Thu Sep 16, 10:04pm

Thu Sep 16, 9:04pm

Thu Sep 16, 8:04pm

Thu Sep 16, 7:04pm

Thu Sep 16, 6:04pm

Thu Sep 16, 5:04pm

Thu Sep 16, 4:04pm

Thu Sep 16, 3:04pm

Thu Sep 16, 2:04pm

Thu Sep 16, 1:05pm

Thu Sep 16, 12:04pm

Thu Sep 16, 11:05am

Thu Sep 16, 10:05am

Thu Sep 16, 9:04am

Thu Sep 16, 8:04am

Thu Sep 16, 7:04am

Thu Sep 16, 6:04am

Thu Sep 16, 5:04am

Thu Sep 16, 4:04am

Meta data:

ID: 91ee2fac-7d8c-43b2-aee6-e9211313916d
Link: https://api.weather.gov/products/91ee2fac-7d8c-43b2-aee6-e9211313916d